Date String (YYYY-MM-DD hh:mm:ss) UTC,Instrument flags,Ambient pressure (hPa),Sample flow (lpm),Bypass flow (lpm),Sample temperature (°C),Ambient temperature (°C),ASC tube jacket temperature (°C),LED temperature (°C),Box temperature (°C),Sample RH (%),Span deviation,Mass concentration (μg/m³),Mass concentration (μg/m³),Mass concentration (μg/m³)
DateTimeUTC,F1_M11,P_M11,Q1_M11,Q2_M11,T1_M11,T2_M11,T3_M11,T4_M11,T5_M11,U1_M11,ZSPAN_M11,X2_M11,X0_M11,X1_M11
2022-10-20 03:00:00,,0832.7,5.02,0.00,29.9,28.5,00.0,38.7,31.8,08.2,0000.0,0003.99,0016.34,0002.09
2022-10-20 03:01:00,,0832.8,4.98,0.00,29.9,28.5,00.0,38.7,31.8,08.3,0000.0,0003.92,0014.80,0002.06
2022-10-20 03:02:00,,0832.8,5.01,0.00,29.9,28.5,00.0,38.7,31.8,08.3,0000.0,0003.88,0014.16,0002.04
2022-10-20 03:03:00,,0832.7,4.99,0.00,29.9,28.5,00.0,38.7,31.8,08.3,0000.0,0003.84,0014.04,0002.02
2022-10-20 03:04:00,,0832.8,5.02,0.00,29.9,28.5,00.0,38.7,31.8,08.3,0000.0,0003.79,0013.91,0001.99
2022-10-20 03:05:00,,0832.8,4.99,0.00,29.9,28.6,00.0,38.7,31.8,08.3,0000.0,0003.71,0014.07,0001.97
2022-10-20 03:06:00,,0832.8,5.00,0.00,29.9,28.6,00.0,38.7,31.8,08.3,0000.0,0003.62,0013.41,0001.93
2022-10-20 03:07:00,,0832.7,4.99,0.00,30.0,28.6,00.0,38.7,31.8,08.2,0000.0,0003.57,0011.60,0001.89
2022-10-20 03:08:00,,0832.7,5.01,0.00,30.0,28.6,00.0,38.7,31.9,08.0,0000.0,0003.53,0011.60,0001.87
2022-10-20 03:09:00,,0832.7,4.99,0.00,30.0,28.5,00.0,38.8,31.8,08.0,0000.0,0003.51,0013.53,0001.87
2022-10-20 03:10:00,,0832.7,5.02,0.00,30.0,28.5,00.0,38.8,31.8,08.0,0000.0,0003.50,0014.74,0001.88
2022-10-20 03:11:00,,0832.7,4.99,0.00,30.0,28.5,00.0,38.8,31.8,08.1,0000.0,0003.48,0015.74,0001.87
2022-10-20 03:12:00,,0832.7,4.99,0.00,30.0,28.5,00.0,38.8,31.8,08.0,0000.0,0003.49,0016.74,0001.87
2022-10-20 03:13:00,,0832.8,5.02,0.00,30.0,28.5,00.0,38.8,31.9,08.0,0000.0,0003.45,0016.50,0001.87
2022-10-20 03:14:00,,0832.8,4.99,0.00,30.0,28.5,00.0,38.8,31.8,08.0,0000.0,0003.46,0015.75,0001.87
2022-10-20 03:15:00,,0832.8,5.00,0.00,30.0,28.5,00.0,38.8,31.9,08.1,0000.0,0003.44,0015.96,0001.88
2022-10-20 03:16:00,,0832.8,5.00,0.00,30.0,28.5,00.0,38.8,31.9,08.1,0000.0,0003.46,0015.36,0001.89
2022-10-20 03:17:00,,0832.8,4.99,0.00,30.0,28.5,00.0,38.8,31.9,08.1,0000.0,0003.52,0016.27,0001.90
2022-10-20 03:18:00,,0832.8,5.00,0.00,30.0,28.5,00.0,38.8,31.9,08.2,0000.0,0003.53,0016.26,0001.91
2022-10-20 03:19:00,,0832.9,5.02,0.00,30.0,28.5,00.0,38.8,31.9,08.1,0000.0,0003.49,0016.42,0001.90
2022-10-20 03:20:00,,0832.8,4.99,0.00,30.0,28.5,00.0,38.8,31.9,08.0,0000.0,0003.47,0015.53,0001.89
2022-10-20 03:21:00,,0832.8,5.00,0.00,30.0,28.5,00.0,38.8,31.9,08.2,0000.0,0003.45,0014.13,0001.88
2022-10-20 03:22:00,,0832.9,4.99,0.00,30.0,28.5,00.0,38.8,31.9,07.9,0000.0,0003.46,0014.04,0001.88
2022-10-20 03:23:00,,0832.8,5.00,0.00,30.0,28.5,00.0,38.8,31.8,07.7,0000.0,0003.44,0013.04,0001.90
2022-10-20 03:24:00,,0832.8,5.01,0.00,30.0,28.5,00.0,38.8,31.8,07.7,0000.0,0003.52,0013.07,0001.94
2022-10-20 03:25:00,,0832.9,4.98,0.00,30.0,28.5,00.0,38.8,31.9,07.9,0000.0,0003.57,0014.51,0001.98
2022-10-20 03:26:00,,0832.9,5.00,0.00,30.0,28.5,00.0,38.8,31.9,07.7,0000.0,0003.55,0014.41,0001.99
2022-10-20 03:27:00,,0833.0,5.00,0.00,30.0,28.5,00.0,38.8,31.9,07.8,0000.0,0003.60,0013.81,0002.01
2022-10-20 03:28:00,,0833.0,5.01,0.00,30.0,28.5,00.0,38.8,31.9,07.8,0000.0,0003.56,0013.00,0002.02
2022-10-20 03:29:00,,0833.0,4.98,0.00,30.0,28.5,00.0,38.9,31.9,07.7,0000.0,0003.55,0012.49,0002.03
2022-10-20 03:30:00,,0833.0,5.01,0.00,30.0,28.5,00.0,38.9,31.9,07.8,0000.0,0003.58,0012.17,0002.06
2022-10-20 03:31:00,,0833.1,4.99,0.00,30.0,28.5,00.0,38.9,31.8,07.7,0000.0,0003.60,0011.56,0002.08
2022-10-20 03:32:00,,0833.1,5.00,0.00,30.0,28.5,00.0,38.9,31.9,07.8,0000.0,0003.62,0010.94,0002.10
2022-10-20 03:33:00,,0833.0,5.00,0.00,30.0,28.5,00.0,38.9,31.9,07.7,0000.0,0003.61,0010.53,0002.12
2022-10-20 03:34:00,,0833.1,4.99,0.00,30.0,28.5,00.0,38.9,31.9,07.4,0000.0,0003.65,0010.35,0002.16
2022-10-20 03:35:00,,0833.0,5.01,0.00,30.0,28.5,00.0,38.9,31.9,07.4,0000.0,0003.68,0010.89,0002.17
2022-10-20 03:36:00,,0833.1,5.00,0.00,30.0,28.5,00.0,38.9,31.8,07.6,0000.0,0003.65,0010.15,0002.17
2022-10-20 03:37:00,,0833.0,5.00,0.00,30.0,28.5,00.0,38.9,31.8,07.7,0000.0,0003.63,0010.34,0002.16
2022-10-20 03:38:00,,0833.0,5.00,0.00,30.0,28.5,00.0,38.9,31.9,07.5,0000.0,0003.63,0011.23,0002.17
2022-10-20 03:39:00,,0833.0,4.98,0.00,30.0,28.5,00.0,38.9,31.9,07.3,0000.0,0003.65,0011.30,0002.21
2022-10-20 03:40:00,,0833.0,5.01,0.00,30.0,28.5,00.0,38.9,31.9,07.3,0000.0,0003.64,0011.72,0002.25
2022-10-20 03:41:00,,0833.0,5.01,0.00,30.0,28.5,00.0,38.9,31.9,07.3,0000.0,0003.62,0011.67,0002.29
2022-10-20 03:42:00,,0833.0,5.00,0.00,30.0,28.6,00.0,38.9,31.9,07.3,0000.0,0003.63,0011.84,0002.32
2022-10-20 03:43:00,,0833.1,4.98,0.00,30.1,28.6,00.0,38.9,31.9,07.1,0000.0,0003.67,0012.78,0002.37
2022-10-20 03:44:00,,0833.0,5.01,0.00,30.1,28.6,00.0,38.9,31.9,06.9,0000.0,0003.72,0013.24,0002.46
2022-10-20 03:45:00,,0833.0,4.99,0.00,30.1,28.6,00.0,38.9,31.9,07.0,0000.0,0003.72,0012.81,0002.51
2022-10-20 03:46:00,,0833.0,4.99,0.00,30.1,28.6,00.0,38.9,31.9,07.0,0000.0,0003.67,0012.30,0002.54
2022-10-20 03:47:00,,0833.0,5.01,0.00,30.1,28.6,00.0,38.9,31.9,07.0,0000.0,0003.71,0012.66,0002.58
2022-10-20 03:48:00,,0833.0,5.01,0.00,30.1,28.7,00.0,38.9,32.0,06.9,0000.0,0003.79,0012.03,0002.66
2022-10-20 03:49:00,,0833.1,4.99,0.00,30.1,28.7,00.0,38.9,32.0,06.9,0000.0,0003.82,0011.57,0002.72
2022-10-20 03:50:00,,0833.0,5.01,0.00,30.1,28.7,00.0,38.9,32.0,06.8,0000.0,0003.81,0012.28,0002.78
2022-10-20 03:51:00,,0833.0,5.00,0.00,30.1,28.7,00.0,38.9,32.0,06.7,0000.0,0003.89,0012.45,0002.86
2022-10-20 03:52:00,,0833.0,4.99,0.00,30.1,28.7,00.0,38.9,32.0,06.8,0000.0,0003.94,0012.68,0002.92
2022-10-20 03:53:00,,0833.0,5.00,0.00,30.1,28.7,00.0,38.9,32.0,06.8,0000.0,0003.94,0012.62,0002.98
2022-10-20 03:54:00,,0833.0,5.00,0.00,30.1,28.7,00.0,38.9,32.0,06.9,0000.0,0003.90,0011.76,0003.01
2022-10-20 03:55:00,,0833.0,5.00,0.00,30.1,28.7,00.0,39.0,32.0,07.1,0000.0,0003.88,0011.71,0002.99
2022-10-20 03:56:00,,0833.0,5.00,0.00,30.2,28.7,00.0,39.0,32.0,07.1,0000.0,0003.90,0012.32,0002.98
2022-10-20 03:57:00,,0833.0,5.00,0.00,30.2,28.8,00.0,39.0,32.0,06.9,0000.0,0003.96,0012.41,0002.99
2022-10-20 03:58:00,,0833.0,4.99,0.00,30.2,28.7,00.0,39.0,32.0,07.0,0000.0,0003.94,0012.89,0003.00
2022-10-20 03:59:00,,0833.0,5.01,0.00,30.2,28.7,00.0,39.0,32.0,07.1,0000.0,0003.92,0013.22,0003.00
